Location: Castiglione Fibocchi
(43.5333°N, 11.7667°E)
Time: 16:47:19
(UTC+00:00)

ATLAS CENTAUR R/B - Pass Details

Date: 15 August 2020
Orbit: 476 x 670 km, 64.7° (Epoch: 17 September)

Event Time Altitude Azimuth Distance (km) Brightness Sun altitude
Exits shadow 02:13:34 46° 276° (W) 737 1.6 -19.9°
Maximum altitude 02:14:10 50° 308° (NW) 687 1.7 -19.8°
Drops below altitude 10° 02:17:59 10° 25° (NNE) 1,749 4.9 -19.3°
Sets 02:20:09 0° 31° (NNE) 2,612 6.2 -19.0°
